Truckee-Tahoe, CA

6:30 PM PST on January 17, 2018 (GMT -0800)
Truckee-Tahoe

Weather History for KTRK - January, 2013

Change the Weather History Date:

Wednesday, January 16, 2013

  Actual Average Record
Temperature  
Mean Temperature 19 °F -  
Max Temperature 35 °F 40 °F 55 °F (1967)
Min Temperature 3 °F 20 °F -9 °F (1960)
Degree Days  
Heating Degree Days 46    
Moisture  
Dew Point 9 °F    
Average Humidity 83    
Maximum Humidity 93    
Minimum Humidity 41    
Precipitation  
Precipitation 0.00 in - - ()
Sea Level Pressure  
Sea Level Pressure 30.55 in    
Wind  
Wind Speed 0 mph (SSW)    
Max Wind Speed 5 mph    
Max Gust Speed -    
Visibility 6 miles    
Events Fog , Snow    
Averages and records for this station are not official NWS values.
T = Trace of Precipitation, MM = Missing Value Source: NWS Daily Summary

Daily Weather History Graph

Daily Weather History Graph

Search for Another Location

Airport or City:

Trip Planner

Search our weather history database for the weather conditions in past years. The results will help you decide how hot, cold, wet, or windy it might be!

Date:

Astronomy

Jan. 16, 2013 Rise Set
Actual Time 7:18 AM PST 5:03 PM PST
Civil Twilight 6:48 AM PST 5:32 PM PST
Nautical Twilight 6:15 AM PST 6:05 PM PST
Astronomical Twilight 5:43 AM PST 6:37 PM PST
Moon 9:59 AM PST (1/16) 10:57 PM PST (1/16)
Length of Visible Light 10h 43m
Length of Day
9h 44m
Waxing Crescent, 29% of the Moon is Illuminated
Jan 16
Waxing Crescent
Jan 18
First Quarter
Jan 26
Full
Feb 3
Last Quarter
Feb 9
New

Hourly Weather History & Observations

Time (PST) Temp. Windchill Dew Point Humidity Pressure Visibility Wind Dir Wind Speed Gust Speed Precip Events Conditions
12:15 AM 12.2 °F - 10.4 °F 92% 30.59 in 0.8 mi Calm Calm - N/A   Mist
12:35 AM 14.0 °F - 12.2 °F 93% 30.59 in 0.8 mi Calm Calm - N/A   Mist
12:55 AM 8.6 °F - 6.8 °F 92% 30.59 in 0.5 mi Calm Calm - N/A Fog Light Freezing Fog
1:15 AM 10.4 °F - 8.6 °F 92% 30.60 in 1.2 mi Calm Calm - N/A   Clear
1:35 AM 8.6 °F 2.0 °F 5.0 °F 85% 30.60 in 0.2 mi SSE 3.5 mph - N/A Fog Light Freezing Fog
1:55 AM 6.8 °F - 1.4 °F 79% 30.60 in 0.5 mi Calm Calm - N/A Fog Light Freezing Fog
2:15 AM 8.6 °F 2.0 °F 6.8 °F 92% 30.60 in 0.8 mi South 3.5 mph - N/A   Mist
2:35 AM 10.4 °F - 6.8 °F 85% 30.60 in 10.0 mi Calm Calm - N/A   Clear
2:55 AM 8.6 °F - 5.0 °F 85% 30.60 in 0.8 mi Calm Calm - N/A   Mist
3:15 AM 8.6 °F - 6.8 °F 92% 30.60 in 0.2 mi Calm Calm - N/A Fog Light Freezing Fog
3:35 AM 6.8 °F - 5.0 °F 92% 30.60 in 0.2 mi Calm Calm - N/A Fog Light Freezing Fog
3:55 AM 6.8 °F - 3.2 °F 85% 30.60 in 0.2 mi Calm Calm - N/A Fog Light Freezing Fog
4:15 AM 6.8 °F - 3.2 °F 85% 30.60 in 0.2 mi Calm Calm - N/A Fog Light Freezing Fog
4:35 AM 6.8 °F - 5.0 °F 92% 30.59 in 3.0 mi Calm Calm - N/A   Partly Cloudy
4:55 AM 5.0 °F - 1.4 °F 85% 30.59 in 0.5 mi Calm Calm - N/A Fog Light Freezing Fog
5:15 AM 5.0 °F - 1.4 °F 85% 30.58 in 1.0 mi Calm Calm - N/A   Clear
5:35 AM 5.0 °F - 1.4 °F 85% 30.58 in 10.0 mi Calm Calm - N/A   Clear
6:45 AM 3.2 °F - -0.4 °F 85% 30.58 in 1.0 mi Calm Calm - N/A Fog Shallow Fog
7:45 AM 3.2 °F - -0.4 °F 85% 30.60 in 0.5 mi Calm Calm - N/A Fog Light Freezing Fog
9:50 AM 12.2 °F - 8.6 °F 85% 30.60 in 10.0 mi Calm Calm - N/A   Clear
10:45 AM 15.8 °F - 14.0 °F 93% 30.58 in 10.0 mi Calm Calm - N/A   Clear
11:55 AM 23.0 °F - 19.4 °F 86% 30.53 in 10.0 mi Calm Calm - N/A   Clear
12:55 PM 26.6 °F - 17.6 °F 69% 30.49 in 10.0 mi Calm Calm - N/A   Clear
1:50 PM 28.4 °F - 15.8 °F 59% 30.49 in 10.0 mi Calm Calm - N/A   Clear
3:55 PM 35.6 °F 31.7 °F 14.0 °F 41% 30.48 in 10.0 mi North 4.6 mph - N/A   Clear
4:55 PM 32.0 °F 28.7 °F 15.8 °F 51% 30.49 in 10.0 mi WNW 3.5 mph - N/A   Clear
5:15 PM 26.6 °F - 14.0 °F 59% 30.49 in 10.0 mi Calm Calm - N/A   Clear
5:35 PM 24.8 °F 20.5 °F 14.0 °F 64% 30.49 in 10.0 mi South 3.5 mph - N/A   Clear
5:55 PM 23.0 °F - 14.0 °F 68% 30.50 in 10.0 mi Calm Calm - N/A   Clear
6:15 PM 21.2 °F - 14.0 °F 74% 30.51 in 10.0 mi Calm Calm - N/A Snow Light Snow
6:35 PM 19.4 °F - 14.0 °F 80% 30.51 in 10.0 mi Calm Calm - N/A Snow Light Snow
6:55 PM 21.2 °F - 14.0 °F 74% 30.51 in 10.0 mi Calm Calm - N/A   Clear
7:15 PM 17.6 °F - 12.2 °F 79% 30.52 in 10.0 mi Calm Calm - N/A   Clear
7:35 PM 19.4 °F - 14.0 °F 80% 30.52 in 10.0 mi Calm Calm - N/A   Clear
7:55 PM 17.6 °F - 14.0 °F 86% 30.52 in 10.0 mi Calm Calm - N/A   Clear
8:15 PM 14.0 °F - 10.4 °F 86% 30.52 in 10.0 mi Calm Calm - N/A   Clear
8:35 PM 14.0 °F - 10.4 °F 86% 30.52 in 10.0 mi Calm Calm - N/A   Clear
8:55 PM 12.2 °F - 10.4 °F 92% 30.52 in 10.0 mi Calm Calm - N/A   Clear
9:15 PM 14.0 °F - 12.2 °F 93% 30.52 in 10.0 mi Calm Calm - N/A   Clear
9:35 PM 12.2 °F - 8.6 °F 85% 30.52 in 5.0 mi Calm Calm - N/A   Clear
9:55 PM 10.4 °F - 8.6 °F 92% 30.52 in 10.0 mi Calm Calm - N/A   Clear
10:15 PM 12.2 °F - 8.6 °F 85% 30.52 in 10.0 mi Calm Calm - N/A   Clear
10:35 PM 10.4 °F - 6.8 °F 85% 30.52 in 9.0 mi Calm Calm - N/A   Clear
10:55 PM 6.8 °F - 5.0 °F 92% 30.51 in 0.2 mi Calm Calm - N/A Fog Light Freezing Fog
11:15 PM 10.4 °F - 6.8 °F 85% 30.51 in 0.8 mi Calm Calm - N/A   Mist
11:35 PM 6.8 °F - 5.0 °F 92% 30.51 in 0.2 mi Calm Calm - N/A Fog Light Freezing Fog
11:55 PM 6.8 °F - 5.0 °F 92% 30.51 in 0.2 mi Calm Calm - N/A Fog Light Freezing Fog